Location: Marcé
(47.5801°N, 0.3280°W)
Time: 11:13:43
(UTC+01:00)

Vanguard 3 - Pass Details

Date: 03 December 2021
Orbit: 508 x 3260 km, 33.3° (Epoch: 17 January)

Event Time Altitude Azimuth Distance (km) Brightness Sun altitude
Exits shadow 04:27:20 24° 199° (SSW) 5,050 10.8 -40.1°
Maximum altitude 04:37:12 37° 157° (SSE) 4,177 10.7 -38.5°
Drops below altitude 10° 04:51:28 10° 98° (E) 5,210 12.0 -36.1°
Sets 04:55:19 0° 90° (E) 5,889 12.5 -35.5°
